Find Starlink 33643

NORAD ID: 63381 Int'l Des: 2025-063 Owner: SPXS Country: US Constellation: starlink operational
LEOCIRCULAR

現在のビュー

3D地球を読み込み中...

About Starlink 33643

Starlink 33643 (NORAD 63381) is a starlink constellation satellite (v2 mini) launched Mar 26, 2025 by SPXS of US. It operates in LEO, CIRCULAR orbit with a mass of 575.00 kg.

次回通過

Passes for default location (London). Set your location on the main map for personalized predictions.

高度履歴

Loading altitude history...

軌道要素

1 63381U 25063U 26263.21988871 .00015465 00000-0 46778-3 0 9996
2 63381 53.1590 226.7111 0001593 74.0320 286.0858 15.34408690 84571
Epoch: Sep 20, 2026 • Age: 17 hours

現在のステータス

高度 477.9 km
遠地点 / 近地点 N/A
速度 7.63 km/s
衛星直下点 -43.36°S, 154.38°W
打ち上げ日 Mar 26, 2025
運用期間 1.4 years
タイプ internet

技術仕様

分類 Payload
質量 575.00 kg
乾燥質量 530.00 kg
長さ 0.30 m
スパン 29.00 m
形状 ? Box + pan
製造者 SPXS
バスタイプ Starlink V2MO
フェーズステータス In Orbit
所有者/国 SPXS/US

Most Searched